Time,TemperatureF,DewpointF,PressureIn,WindDirection,WindDirectionDegrees,WindSpeedMPH,WindSpeedGustMPH,Humidity,HourlyPrecipIn,Conditions,Clouds,dailyrainin,SolarRadiationWatts/m^2,SoftwareType,DateUTC
2013-05-30 00:03:00,57.0,57.0,-100.00,SE,128,1.0,4.0,100,0.00,,,0.15,0.000000,,2013-05-30 04:03:00,
2013-05-30 00:10:00,58.0,58.0,-100.00,SW,227,2.0,4.0,100,0.00,,,0.15,0.000000,,2013-05-30 04:10:00,
2013-05-30 00:33:00,58.0,58.0,-100.00,SW,227,2.0,4.0,100,0.00,,,0.15,0.000000,,2013-05-30 04:33:00,
2013-05-30 00:42:00,58.0,58.0,-100.00,SW,227,2.0,4.0,100,0.00,,,0.15,0.000000,,2013-05-30 04:42:00,
2013-05-30 00:53:00,58.0,58.0,-100.00,SW,227,2.0,4.0,100,0.00,,,0.15,0.000000,,2013-05-30 04:53:00,
2013-05-30 01:02:00,58.0,58.0,-100.00,SW,227,2.0,4.0,100,0.00,,,0.15,0.000000,,2013-05-30 05:02:00,
2013-05-30 01:10:00,58.0,58.0,-100.00,ESE,102,2.0,5.0,99,0.00,,,0.15,0.000000,,2013-05-30 05:10:00,
2013-05-30 01:32:00,58.0,58.0,-100.00,ESE,102,2.0,5.0,99,0.00,,,0.15,0.000000,,2013-05-30 05:32:00,
2013-05-30 01:43:00,58.0,58.0,-100.00,ESE,102,2.0,5.0,99,0.00,,,0.15,0.000000,,2013-05-30 05:43:00,
2013-05-30 01:52:00,58.0,58.0,-100.00,ESE,102,2.0,5.0,99,0.00,,,0.15,0.000000,,2013-05-30 05:52:00,
2013-05-30 02:01:00,58.0,58.0,-100.00,ESE,102,2.0,5.0,99,0.00,,,0.15,0.000000,,2013-05-30 06:01:00,
2013-05-30 02:10:00,59.0,59.0,-100.00,SE,137,1.0,5.0,100,0.00,,,0.15,0.000000,,2013-05-30 06:10:00,
2013-05-30 02:32:00,59.0,59.0,-100.00,SE,137,1.0,5.0,100,0.00,,,0.15,0.000000,,2013-05-30 06:32:00,
2013-05-30 02:42:00,59.0,59.0,-100.00,SE,137,1.0,5.0,100,0.00,,,0.15,0.000000,,2013-05-30 06:42:00,
2013-05-30 02:52:00,59.0,59.0,-100.00,SE,137,1.0,5.0,100,0.00,,,0.15,0.000000,,2013-05-30 06:52:00,
2013-05-30 03:01:00,59.0,59.0,-100.00,SE,137,1.0,5.0,100,0.00,,,0.15,0.000000,,2013-05-30 07:01:00,
2013-05-30 03:10:00,60.0,60.0,-100.00,East,84,1.0,4.0,100,0.00,,,0.15,0.000000,,2013-05-30 07:10:00,
2013-05-30 03:32:00,60.0,60.0,-100.00,East,84,1.0,4.0,100,0.00,,,0.15,0.000000,,2013-05-30 07:32:00,
2013-05-30 03:42:00,60.0,60.0,-100.00,East,84,1.0,4.0,100,0.00,,,0.15,0.000000,,2013-05-30 07:42:00,
2013-05-30 03:52:00,60.0,60.0,-100.00,East,84,1.0,4.0,100,0.00,,,0.15,0.000000,,2013-05-30 07:52:00,
2013-05-30 04:02:00,60.0,60.0,-100.00,East,84,1.0,4.0,100,0.00,,,0.15,0.000000,,2013-05-30 08:02:00,
2013-05-30 04:10:00,60.0,60.0,-100.00,North,4,0.0,3.0,100,0.00,,,0.15,0.000000,,2013-05-30 08:10:00,
2013-05-30 04:32:00,60.0,60.0,-100.00,North,4,0.0,3.0,100,0.00,,,0.15,0.000000,,2013-05-30 08:32:00,
2013-05-30 04:42:00,60.0,60.0,-100.00,North,4,0.0,3.0,100,0.00,,,0.15,0.000000,,2013-05-30 08:42:00,
2013-05-30 04:53:00,60.0,60.0,-100.00,North,4,0.0,3.0,100,0.00,,,0.15,0.000000,,2013-05-30 08:53:00,
2013-05-30 05:01:00,60.0,60.0,-100.00,North,4,0.0,3.0,100,0.00,,,0.15,0.000000,,2013-05-30 09:01:00,
2013-05-30 05:10:00,60.0,60.0,-100.00,NE,45,1.0,4.0,100,0.00,,,0.15,1.000000,,2013-05-30 09:10:00,
2013-05-30 05:33:00,60.0,60.0,-100.00,NE,45,1.0,4.0,100,0.00,,,0.15,1.000000,,2013-05-30 09:33:00,
2013-05-30 05:43:00,60.0,60.0,-100.00,NE,45,1.0,4.0,100,0.00,,,0.15,1.000000,,2013-05-30 09:43:00,
2013-05-30 05:53:00,60.0,60.0,-100.00,NE,45,1.0,4.0,100,0.00,,,0.15,1.000000,,2013-05-30 09:53:00,
2013-05-30 06:03:00,60.0,60.0,-100.00,NE,45,1.0,4.0,100,0.00,,,0.15,1.000000,,2013-05-30 10:03:00,
2013-05-30 06:10:00,60.0,60.0,-100.00,ESE,108,1.0,3.0,100,0.00,,,0.15,12.000000,,2013-05-30 10:10:00,
2013-05-30 06:33:00,60.0,60.0,-100.00,ESE,108,1.0,3.0,100,0.00,,,0.15,12.000000,,2013-05-30 10:33:00,
2013-05-30 06:42:00,60.0,60.0,-100.00,ESE,108,1.0,3.0,100,0.00,,,0.15,12.000000,,2013-05-30 10:42:00,
2013-05-30 06:52:00,60.0,60.0,-100.00,ESE,108,1.0,3.0,100,0.00,,,0.15,12.000000,,2013-05-30 10:52:00,
2013-05-30 07:03:00,60.0,60.0,-100.00,ESE,108,1.0,3.0,100,0.00,,,0.15,12.000000,,2013-05-30 11:03:00,
2013-05-30 07:10:00,61.0,61.0,-100.00,East,94,1.0,4.0,100,0.00,,,0.15,30.000000,,2013-05-30 11:10:00,
2013-05-30 07:32:00,61.0,61.0,-100.00,East,94,1.0,4.0,100,0.00,,,0.15,30.000000,,2013-05-30 11:32:00,
2013-05-30 07:42:00,61.0,61.0,-100.00,East,94,1.0,4.0,100,0.00,,,0.15,30.000000,,2013-05-30 11:42:00,
2013-05-30 07:52:00,61.0,61.0,-100.00,East,94,1.0,4.0,100,0.00,,,0.15,30.000000,,2013-05-30 11:52:00,
2013-05-30 08:02:00,61.0,61.0,-100.00,East,94,1.0,4.0,100,0.00,,,0.15,30.000000,,2013-05-30 12:02:00,
2013-05-30 08:10:00,66.0,64.0,-100.00,ESE,122,1.0,5.0,93,0.00,,,0.14,145.000000,,2013-05-30 12:10:00,
2013-05-30 08:32:00,66.0,64.0,-100.00,ESE,122,1.0,5.0,93,0.00,,,0.14,145.000000,,2013-05-30 12:32:00,
2013-05-30 08:42:00,66.0,64.0,-100.00,ESE,122,1.0,5.0,93,0.00,,,0.14,145.000000,,2013-05-30 12:42:00,
2013-05-30 08:52:00,66.0,64.0,-100.00,ESE,122,1.0,5.0,93,0.00,,,0.14,145.000000,,2013-05-30 12:52:00,
2013-05-30 09:01:00,66.0,64.0,-100.00,ESE,122,1.0,5.0,93,0.00,,,0.14,145.000000,,2013-05-30 13:01:00,
2013-05-30 09:10:00,70.0,64.0,-100.00,WSW,242,2.0,5.0,82,0.00,,,0.13,290.000000,,2013-05-30 13:10:00,
2013-05-30 09:32:00,70.0,64.0,-100.00,WSW,242,2.0,5.0,82,0.00,,,0.13,290.000000,,2013-05-30 13:32:00,
2013-05-30 09:42:00,70.0,64.0,-100.00,WSW,242,2.0,5.0,82,0.00,,,0.13,290.000000,,2013-05-30 13:42:00,
2013-05-30 09:52:00,70.0,64.0,-100.00,WSW,242,2.0,5.0,82,0.00,,,0.13,290.000000,,2013-05-30 13:52:00,
2013-05-30 10:02:00,70.0,64.0,-100.00,WSW,242,2.0,5.0,82,0.00,,,0.13,290.000000,,2013-05-30 14:02:00,
2013-05-30 10:10:00,73.0,63.0,-100.00,WSW,254,3.0,6.0,70,0.00,,,0.13,379.000000,,2013-05-30 14:10:00,
2013-05-30 10:32:00,73.0,63.0,-100.00,WSW,254,3.0,6.0,70,0.00,,,0.13,379.000000,,2013-05-30 14:32:00,
2013-05-30 10:42:00,73.0,63.0,-100.00,WSW,254,3.0,6.0,70,0.00,,,0.13,379.000000,,2013-05-30 14:42:00,
2013-05-30 10:52:00,73.0,63.0,-100.00,WSW,254,3.0,6.0,70,0.00,,,0.13,379.000000,,2013-05-30 14:52:00,
2013-05-30 11:01:00,73.0,63.0,-100.00,WSW,254,3.0,6.0,70,0.00,,,0.13,379.000000,,2013-05-30 15:01:00,
2013-05-30 11:10:00,76.0,62.0,-100.00,West,270,3.0,9.0,62,0.00,,,0.03,470.000000,,2013-05-30 15:10:00,
2013-05-30 11:33:00,76.0,62.0,-100.00,West,270,3.0,9.0,62,0.00,,,0.03,470.000000,,2013-05-30 15:33:00,
2013-05-30 11:43:00,76.0,62.0,-100.00,West,270,3.0,9.0,62,0.00,,,0.03,470.000000,,2013-05-30 15:43:00,
2013-05-30 11:53:00,76.0,62.0,-100.00,West,270,3.0,9.0,62,0.00,,,0.03,470.000000,,2013-05-30 15:53:00,
2013-05-30 12:03:00,76.0,62.0,-100.00,West,270,3.0,9.0,62,0.00,,,0.03,470.000000,,2013-05-30 16:03:00,
2013-05-30 12:10:00,79.0,59.0,-100.00,West,264,6.0,15.0,51,0.00,,,0.00,765.000000,,2013-05-30 16:10:00,
2013-05-30 12:33:00,79.0,59.0,-100.00,West,264,6.0,15.0,51,0.00,,,0.00,765.000000,,2013-05-30 16:33:00,
2013-05-30 12:42:00,79.0,59.0,-100.00,West,264,6.0,15.0,51,0.00,,,0.00,765.000000,,2013-05-30 16:42:00,
2013-05-30 12:53:00,79.0,59.0,-100.00,West,264,6.0,15.0,51,0.00,,,0.00,765.000000,,2013-05-30 16:53:00,
2013-05-30 13:02:00,79.0,59.0,-100.00,West,264,6.0,15.0,51,0.00,,,0.00,765.000000,,2013-05-30 17:02:00,
2013-05-30 13:10:00,80.0,59.0,-100.00,West,266,6.0,15.0,48,0.00,,,0.00,596.000000,,2013-05-30 17:10:00,
2013-05-30 13:32:00,80.0,59.0,-100.00,West,266,6.0,15.0,48,0.00,,,0.00,596.000000,,2013-05-30 17:32:00,
2013-05-30 13:42:00,80.0,59.0,-100.00,West,266,6.0,15.0,48,0.00,,,0.00,596.000000,,2013-05-30 17:42:00,
2013-05-30 13:52:00,80.0,59.0,-100.00,West,266,6.0,15.0,48,0.00,,,0.00,596.000000,,2013-05-30 17:52:00,
2013-05-30 14:02:00,80.0,59.0,-100.00,West,266,6.0,15.0,48,0.00,,,0.00,596.000000,,2013-05-30 18:02:00,
2013-05-30 14:10:00,83.0,58.0,-100.00,West,269,7.0,14.0,43,0.00,,,0.00,554.000000,,2013-05-30 18:10:00,
2013-05-30 14:32:00,83.0,58.0,-100.00,West,269,7.0,14.0,43,0.00,,,0.00,554.000000,,2013-05-30 18:32:00,
2013-05-30 14:43:00,83.0,58.0,-100.00,West,269,7.0,14.0,43,0.00,,,0.00,554.000000,,2013-05-30 18:43:00,
2013-05-30 14:52:00,83.0,58.0,-100.00,West,269,7.0,14.0,43,0.00,,,0.00,554.000000,,2013-05-30 18:52:00,
2013-05-30 15:02:00,83.0,58.0,-100.00,West,269,7.0,14.0,43,0.00,,,0.00,554.000000,,2013-05-30 19:02:00,
2013-05-30 15:10:00,84.0,59.0,-100.00,West,266,6.0,15.0,43,0.00,,,0.00,595.000000,,2013-05-30 19:10:00,
2013-05-30 15:32:00,84.0,59.0,-100.00,West,266,6.0,15.0,43,0.00,,,0.00,595.000000,,2013-05-30 19:32:00,
2013-05-30 15:42:00,84.0,59.0,-100.00,West,266,6.0,15.0,43,0.00,,,0.00,595.000000,,2013-05-30 19:42:00,
2013-05-30 15:53:00,84.0,59.0,-100.00,West,266,6.0,15.0,43,0.00,,,0.00,595.000000,,2013-05-30 19:53:00,
2013-05-30 16:02:00,84.0,59.0,-100.00,West,266,6.0,15.0,43,0.00,,,0.00,595.000000,,2013-05-30 20:02:00,
2013-05-30 16:10:00,85.0,59.0,-100.00,West,277,4.0,15.0,42,0.00,,,0.00,532.000000,,2013-05-30 20:10:00,
2013-05-30 16:33:00,85.0,59.0,-100.00,West,277,4.0,15.0,42,0.00,,,0.00,532.000000,,2013-05-30 20:33:00,
2013-05-30 16:42:00,85.0,59.0,-100.00,West,277,4.0,15.0,42,0.00,,,0.00,532.000000,,2013-05-30 20:42:00,
2013-05-30 16:52:00,85.0,59.0,-100.00,West,277,4.0,15.0,42,0.00,,,0.00,532.000000,,2013-05-30 20:52:00,
2013-05-30 17:01:00,85.0,59.0,-100.00,West,277,4.0,15.0,42,0.00,,,0.00,532.000000,,2013-05-30 21:01:00,
2013-05-30 17:10:00,81.0,57.0,-100.00,West,272,4.0,12.0,44,0.00,,,0.00,317.000000,,2013-05-30 21:10:00,
2013-05-30 17:33:00,81.0,57.0,-100.00,West,272,4.0,12.0,44,0.00,,,0.00,317.000000,,2013-05-30 21:33:00,
2013-05-30 17:43:00,81.0,57.0,-100.00,West,272,4.0,12.0,44,0.00,,,0.00,317.000000,,2013-05-30 21:43:00,
2013-05-30 17:53:00,81.0,57.0,-100.00,West,272,4.0,12.0,44,0.00,,,0.00,317.000000,,2013-05-30 21:53:00,
2013-05-30 18:02:00,81.0,57.0,-100.00,West,272,4.0,12.0,44,0.00,,,0.00,317.000000,,2013-05-30 22:02:00,
2013-05-30 18:10:00,83.0,59.0,-100.00,West,272,5.0,13.0,45,0.00,,,0.00,230.000000,,2013-05-30 22:10:00,
2013-05-30 18:33:00,83.0,59.0,-100.00,West,272,5.0,13.0,45,0.00,,,0.00,230.000000,,2013-05-30 22:33:00,
2013-05-30 18:42:00,83.0,59.0,-100.00,West,272,5.0,13.0,45,0.00,,,0.00,230.000000,,2013-05-30 22:42:00,
2013-05-30 18:52:00,83.0,59.0,-100.00,West,272,5.0,13.0,45,0.00,,,0.00,230.000000,,2013-05-30 22:52:00,
2013-05-30 19:02:00,83.0,59.0,-100.00,West,272,5.0,13.0,45,0.00,,,0.00,230.000000,,2013-05-30 23:02:00,
2013-05-30 19:10:00,78.0,56.0,-100.00,NNW,332,1.0,9.0,47,0.00,,,0.00,122.000000,,2013-05-30 23:10:00,
2013-05-30 19:32:00,78.0,56.0,-100.00,NNW,332,1.0,9.0,47,0.00,,,0.00,122.000000,,2013-05-30 23:32:00,
2013-05-30 19:42:00,78.0,56.0,-100.00,NNW,332,1.0,9.0,47,0.00,,,0.00,122.000000,,2013-05-30 23:42:00,
2013-05-30 19:52:00,78.0,56.0,-100.00,NNW,332,1.0,9.0,47,0.00,,,0.00,122.000000,,2013-05-30 23:52:00,
2013-05-30 20:01:00,78.0,56.0,-100.00,NNW,332,1.0,9.0,47,0.00,,,0.00,122.000000,,2013-05-31 00:01:00,
2013-05-30 20:10:00,72.0,63.0,-100.00,NNE,29,1.0,3.0,73,0.00,,,-99.99,31.000000,,2013-05-31 00:10:00,
2013-05-30 20:32:00,72.0,63.0,-100.00,NNE,29,1.0,3.0,73,0.00,,,-99.99,31.000000,,2013-05-31 00:32:00,
2013-05-30 20:42:00,72.0,63.0,-100.00,NNE,29,1.0,3.0,73,0.00,,,-99.99,31.000000,,2013-05-31 00:42:00,
2013-05-30 20:52:00,72.0,63.0,-100.00,NNE,29,1.0,3.0,73,0.00,,,-99.99,31.000000,,2013-05-31 00:52:00,
2013-05-30 21:01:00,72.0,63.0,-100.00,NNE,29,1.0,3.0,73,0.00,,,-99.99,31.000000,,2013-05-31 01:01:00,
2013-05-30 21:10:00,66.0,62.0,-100.00,East,91,1.0,3.0,86,0.00,,,0.00,2.000000,,2013-05-31 01:10:00,
2013-05-30 21:32:00,66.0,62.0,-100.00,East,91,1.0,3.0,86,0.00,,,0.00,2.000000,,2013-05-31 01:32:00,
2013-05-30 21:42:00,66.0,62.0,-100.00,East,91,1.0,3.0,86,0.00,,,0.00,2.000000,,2013-05-31 01:42:00,
2013-05-30 21:52:00,66.0,62.0,-100.00,East,91,1.0,3.0,86,0.00,,,0.00,2.000000,,2013-05-31 01:52:00,
2013-05-30 22:02:00,66.0,62.0,-100.00,East,91,1.0,3.0,86,0.00,,,0.00,2.000000,,2013-05-31 02:02:00,
2013-05-30 22:10:00,63.0,60.0,-100.00,East,96,1.0,2.0,91,0.00,,,0.00,0.000000,,2013-05-31 02:10:00,
2013-05-30 22:32:00,63.0,60.0,-100.00,East,96,1.0,2.0,91,0.00,,,0.00,0.000000,,2013-05-31 02:32:00,
2013-05-30 22:42:00,63.0,60.0,-100.00,East,96,1.0,2.0,91,0.00,,,0.00,0.000000,,2013-05-31 02:42:00,
2013-05-30 22:52:00,63.0,60.0,-100.00,East,96,1.0,2.0,91,0.00,,,0.00,0.000000,,2013-05-31 02:52:00,
2013-05-30 23:01:00,63.0,60.0,-100.00,East,96,1.0,2.0,91,0.00,,,0.00,0.000000,,2013-05-31 03:01:00,
2013-05-30 23:10:00,61.0,60.0,-100.00,ESE,112,0.0,0.0,95,0.00,,,0.00,0.000000,,2013-05-31 03:10:00,
2013-05-30 23:33:00,61.0,60.0,-100.00,ESE,112,0.0,0.0,95,0.00,,,0.00,0.000000,,2013-05-31 03:33:00,
2013-05-30 23:43:00,61.0,60.0,-100.00,ESE,112,0.0,0.0,95,0.00,,,0.00,0.000000,,2013-05-31 03:43:00,
2013-05-30 23:53:00,61.0,60.0,-100.00,ESE,112,0.0,0.0,95,0.00,,,0.00,0.000000,,2013-05-31 03:53:00,